Location: Newark
(36.1358°N, 115.1208°W)
Time: 08:03:33
(UTC+00:00)

Vanguard 1 Rocket - Pass Details

Date: 18 February 2020
Orbit: 650 x 4226 km, 34.3° (Epoch: 07 April)

Event Time Altitude Azimuth Distance (km) Brightness Sun altitude
Rises 17:17:19 0° 267° (W) 3,182 9.9 29.6°
Reaches altitude 10° 17:20:01 10° 248° (WSW) 2,479 9.5 29.9°
Maximum altitude 17:24:05 20° 202° (SSW) 2,281 9.9 30.5°
Drops below altitude 10° 17:29:44 10° 160° (SSE) 3,610 11.7 31.3°
Sets 17:34:54 0° 146° (SE) 5,271 12.4 32.0°
